Regional Weather Roundup
Issued by NWS Huntsville, AL

Home | Current Version | Previous Version | Text Only | Print | Product List | Glossary On
Versions: 1 2 3 4 5 6 7 8 9 10 11 12 13 14 15 16 17 18 19 20 21 22 23 24 25 26 27 28
000
ASUS44 KHUN 072110
RWRHUN

WEATHER ROUNDUP FOR THE TENNESSEE VALLEY
NATIONAL WEATHER SERVICE HUNTSVILLE AL
300 PM CST WED DEC 07 2016

ALZ001>004-072200-
NORTHWEST ALABAMA

CITY           SKY/WX    TMP DP  RH WIND       PRES   REMARKS
COURTLAND HCN    N/A     45 N/A N/A NW3         N/A
RUSSELLVILLE     N/A     45 N/A N/A MISG        N/A
SHOALS AIRPORT CLOUDY    45  33  63 CALM      30.14S
SHOALS TVA RES   N/A     45 N/A N/A MISG        N/A
$$

ALZ005>007-016-072200-
NORTH CENTRAL ALABAMA

CITY           SKY/WX    TMP DP  RH WIND       PRES   REMARKS
CULLMAN AG STN   N/A     45 N/A N/A W6          N/A
DECATUR AP     CLOUDY    44  37  76 NW5       30.12R
HUNTSVILLE AP  CLOUDY    46  37  71 NW5       30.12R
MERIDIANVILLE  CLOUDY    43  34  70 NW5       30.12R
REDSTONE ARSN  CLOUDY    44  37  76 CALM      30.11R
VINEMONT AP    CLOUDY    44  36  73 NW3       30.12R
$$

ALZ008>010-072200-
NORTHEAST ALABAMA

CITY           SKY/WX    TMP DP  RH WIND       PRES   REMARKS
ALBERTVILLE    CLOUDY    46  45  93 NW7       30.09R
FORT PAYNE     SUNNY     48  36  61 W8        30.07R
SCOTTSBORO AP  PTSUNNY   48  37  66 W7        30.11R
SCOTTSBORO HCN   N/A     48 N/A N/A MISG        N/A
VALLEY HEAD      N/A     50 N/A N/A MISG        N/A
$$

TNZ076-096-097-072200-
SOUTHEASTERN MIDDLE TENNESSEE

CITY           SKY/WX    TMP DP  RH WIND       PRES   REMARKS
TULLAHOMA      CLOUDY    39  36  87 NW6       30.11R WCI  35
WINCHESTER     CLOUDY    43  36  75 NW3       30.11R
$$

...SURROUNDING SITES...

CITY           SKY/WX    TMP DP  RH WIND       PRES   REMARKS
ATLANTA        MOSUNNY   60  44  55 W10       30.03R
ANNISTON       CLOUDY    52  42  69 W6        30.08S
BIRMINGHAM     CLOUDY    50  41  71 NW7       30.12R
CHATTANOOGA    PTSUNNY   55  37  50 W8        30.05S
CORINTH        CLOUDY    45  32  61 N5        30.15R
DALTON         SUNNY     55  41  58 NW3       30.04S
GADSDEN        CLOUDY    51  41  68 W9        30.10R
GOLDEN TRNGL   CLOUDY    50  39  66 CALM      30.07R
HALEYVILLE     CLOUDY    44  36  73 N3        30.12S
JACKSON TN     CLOUDY    45  33  63 N7        30.16R
MEMPHIS        CLOUDY    46  33  60 CALM      30.17R
NASHVILLE      PTSUNNY   49  31  49 N9        30.14R
OXFORD MS      CLOUDY    45  36  70 N5        30.16R
ROME           MOSUNNY   57  40  52 SW7       30.04R
SAVANNAH       CLOUDY    45  34  65 CALM      30.14R
TUPELO         CLOUDY    47  36  65 N7        30.12S
TUSCALOOSA     CLOUDY    51  42  71 NW8       30.12R
$$

...GULF COAST WEATHER...

CITY           SKY/WX    TMP DP  RH WIND       PRES   REMARKS
GULFPORT       PTSUNNY   64  54  69 N5        30.07S
PASCAGOULA     CLOUDY    67  51  56 N5        30.07S
MOBILE         PTSUNNY   64  51  62 CALM      30.08S
GULF SHORES    CLEAR     66  53  62 NW7       30.07S
PENSACOLA      MOSUNNY   67  52  58 NW8       30.06S
DESTIN         SUNNY     70  55  59 NW5       30.06S
PANAMA CITY    SUNNY     66  56  70 W10       30.06S
APPALACHICOLA  SUNNY     69  55  60 NW13G20   30.06S
$$





USA.gov is the U.S. government's official web portal to all federal, state and local government web resources and services.